2020-079H (46834 NORAD) Tracking and Keplerian Element Data

This shows tracking and keplerian element data for the satellite.

Feedback or suggestion? Click here.




ElementValue
Catalog46834
Name2020-079H
Epoch Orbit260
Epoch Day328.12178051
Epoch Year2020
RAAN40.0014
Inclination97.2651
Eccentricity0.0008884
Argument of Perigee194.3637
Mean Anonmoly253.0726
Mean Motion15.31471785
Decay Rate4.002E-05
L11 46834U 20079H 20328.12178051 .00004002 00000-0 13404-3 0 9994
L22 46834 97.2651 40.0014 0008884 194.3637 253.0726 15.31471785 2602

Live tracking and technical data element details for 2020-079H (NORAD 46834). 2020-079H can be tracked NOW for your location showing map with azimuth and elevation plus other details from your city location.

Track the satellite on the map from your city or location and see movement details for azimuth, elevation, latitude, longitude, range, height, and movement on the map or in text.







IsCatalogInMostPopularTable: catalog: 46834, numindb: 14
Update: records affected: 1



GetName: 46834 2020-079H

Hit Count: updated at: Tue, 24 Nov 2020 12:01:18 GMT